2002,9,1,0,5,-2.13,01,0.00,06,0.20,01,-1.68,01,32.59,01,82.60,01
2002,9,1,0,10,-1.73,01,0.00,06,0.70,01,-1.30,01,32.69,01,82.20,01
2002,9,1,0,15,-1.69,01,0.00,06,0.96,01,-1.26,01,32.81,01,80.00,01
2002,9,1,0,20,-1.79,01,0.00,06,0.95,01,-1.30,01,32.87,01,78.60,01
2002,9,1,0,25,-1.81,01,0.00,06,0.97,01,-1.32,01,32.95,01,77.90,01
2002,9,1,0,30,-1.68,01,0.00,06,1.00,01,-1.26,01,33.03,01,77.80,01
2002,9,1,0,35,-1.70,01,0.00,06,0.87,01,-1.26,01,33.02,01,78.30,01
2002,9,1,0,40,-1.76,01,0.00,06,0.74,01,-1.29,01,32.99,01,78.30,01
2002,9,1,0,45,-1.68,01,0.00,06,0.84,01,-1.26,01,33.03,01,77.80,01
2002,9,1,0,50,-1.62,01,0.00,06,0.70,01,-1.26,01,33.11,01,79.40,01
2002,9,1,0,55,-1.73,01,0.00,06,0.32,01,-1.26,01,33.00,01,82.60,01
2002,9,1,1,0,-1.72,01,0.00,06,0.01,01,-1.27,01,32.84,01,84.30,01
2002,9,1,1,5,-1.67,01,0.00,06,-0.08,01,-1.26,01,32.70,01,85.20,01
2002,9,1,1,10,-1.72,01,0.00,06,-0.03,01,-1.27,01,32.64,01,85.90,01
2002,9,1,1,15,-1.75,01,0.00,06,-0.03,01,-1.28,01,32.59,01,86.70,01
2002,9,1,1,20,-1.73,01,0.00,06,0.10,01,-1.26,01,32.52,01,87.00,01
2002,9,1,1,25,-1.68,01,0.00,06,0.32,01,-1.26,01,32.51,01,86.90,01
2002,9,1,1,30,-1.73,01,0.00,06,0.43,01,-1.26,01,32.49,01,86.50,01
2002,9,1,1,35,-1.56,01,0.00,06,0.47,01,-1.26,01,32.46,01,85.90,01
2002,9,1,1,40,-1.69,01,0.00,06,0.38,01,-1.25,01,32.50,01,85.80,01
2002,9,1,1,45,-1.84,01,0.00,06,0.27,01,-1.27,01,32.40,01,85.20,01
2002,9,1,1,50,-2.10,01,0.00,06,0.08,01,-1.65,01,32.30,01,84.50,01
2002,9,1,1,55,-2.13,01,0.00,06,0.10,01,-1.67,01,32.26,01,84.20,01
2002,9,1,2,0,-2.07,01,0.00,06,0.13,01,-1.64,01,32.21,01,83.70,01
2002,9,1,2,5,-2.10,01,0.00,06,0.07,01,-1.54,01,32.16,01,82.90,01
2002,9,1,2,10,-2.54,01,0.00,06,-0.37,01,-1.81,01,32.09,01,84.20,01
2002,9,1,2,15,-2.79,01,0.00,06,-0.57,01,-1.93,01,31.94,01,86.40,01
2002,9,1,2,20,-2.69,01,0.00,06,-0.56,01,-1.76,01,31.75,01,88.10,01
2002,9,1,2,25,-2.57,01,0.00,06,-0.57,01,-1.76,01,31.63,01,89.70,01
2002,9,1,2,30,-2.44,01,0.00,06,-0.55,01,-1.70,01,31.41,01,91.00,01
2002,9,1,2,35,-2.43,01,0.00,06,-0.43,01,-1.72,01,31.24,01,91.90,01
2002,9,1,2,40,-2.33,01,0.00,06,-0.29,01,-1.69,01,31.11,01,92.30,01
2002,9,1,2,45,-2.10,01,0.00,06,-0.14,01,-1.60,01,31.03,01,92.50,01
2002,9,1,2,50,-1.91,01,0.00,06,0.04,01,-1.38,01,31.01,01,92.80,01
2002,9,1,2,55,-1.75,01,0.00,06,0.12,01,-1.26,01,30.99,01,92.90,01
2002,9,1,3,0,-1.72,01,0.00,06,0.23,01,-1.26,01,31.00,01,93.20,01
2002,9,1,3,5,-1.67,01,0.00,06,0.18,01,-1.26,01,31.04,01,94.30,01
2002,9,1,3,10,-1.58,01,0.00,06,0.24,01,-1.26,01,31.01,01,95.00,01
2002,9,1,3,15,-1.63,01,0.00,06,0.23,01,-1.26,01,30.95,01,95.20,01
2002,9,1,3,20,-1.52,01,0.00,06,0.38,01,-1.26,01,30.86,01,94.80,01
2002,9,1,3,25,-1.19,01,0.00,06,0.59,01,-1.04,01,30.93,01,93.60,01
2002,9,1,3,30,-1.16,01,0.00,06,0.51,01,-0.91,01,31.00,01,92.40,01
2002,9,1,3,35,-1.30,01,0.00,06,0.23,01,-1.17,01,31.09,01,92.50,01
2002,9,1,3,40,-1.45,01,0.00,06,0.05,01,-1.23,01,31.12,01,93.30,01
2002,9,1,3,45,-1.35,01,0.00,06,0.03,01,-1.16,01,31.00,01,93.60,01
2002,9,1,3,50,-1.52,01,0.00,06,-0.25,01,-1.26,01,30.94,01,94.60,01
2002,9,1,3,55,-1.60,01,0.00,06,-0.15,01,-1.25,01,30.86,01,95.20,01
2002,9,1,4,0,-1.40,01,0.00,06,-0.09,01,-1.21,01,30.86,01,95.70,01
2002,9,1,4,5,-1.28,01,0.00,06,-0.01,01,-1.13,01,30.83,01,96.40,01
2002,9,1,4,10,-0.95,01,0.00,06,0.06,01,-0.55,01,30.80,01,96.80,01
2002,9,1,4,15,-1.21,01,0.00,06,0.10,01,-1.01,01,30.78,01,97.10,01
2002,9,1,4,20,-1.28,01,0.00,06,0.02,01,-1.05,01,30.77,01,97.40,01
2002,9,1,4,25,-1.40,01,0.00,06,-0.10,01,-1.18,01,30.70,01,97.70,01
2002,9,1,4,30,-1.30,01,0.00,06,-0.01,01,-1.13,01,30.64,01,97.80,01
2002,9,1,4,35,-1.32,01,0.00,06,0.02,01,-1.13,01,30.63,01,97.80,01
2002,9,1,4,40,-1.38,01,0.00,06,-0.04,01,-1.19,01,30.62,01,98.00,01
2002,9,1,4,45,-1.42,01,0.00,06,0.01,01,-1.23,01,30.59,01,98.10,01
2002,9,1,4,50,-1.38,01,0.00,06,0.03,01,-1.23,01,30.60,01,98.10,01
2002,9,1,4,55,-1.47,01,0.00,06,0.05,01,-1.24,01,30.61,01,98.20,01
2002,9,1,5,0,-1.39,01,0.00,06,-0.03,01,-1.23,01,30.59,01,98.30,01
2002,9,1,5,5,-1.43,01,0.00,06,-0.08,01,-1.21,01,30.58,01,98.40,01
2002,9,1,5,10,-1.43,01,0.00,06,-0.09,01,-1.22,01,30.53,01,98.60,01
2002,9,1,5,15,-1.42,01,0.00,06,-0.07,01,-1.23,01,30.50,01,98.60,01
2002,9,1,5,20,-1.42,01,0.00,06,-0.09,01,-1.21,01,30.46,01,98.60,01
2002,9,1,5,25,-1.66,01,0.00,06,-0.13,01,-1.25,01,30.46,01,98.50,01
2002,9,1,5,30,-1.62,01,0.00,06,-0.18,01,-1.26,01,30.46,01,98.60,01
2002,9,1,5,35,-1.35,01,0.00,06,-0.04,01,-1.13,01,30.44,01,98.60,01
2002,9,1,5,40,-1.33,01,0.00,06,0.00,01,-1.11,01,30.45,01,98.50,01
2002,9,1,5,45,-1.19,01,0.00,06,0.01,01,-1.01,01,30.45,01,98.40,01
2002,9,1,5,50,-1.27,01,0.00,06,0.01,01,-1.05,01,30.45,01,98.30,01
2002,9,1,5,55,-1.29,01,0.00,06,-0.04,01,-1.08,01,30.42,01,98.20,01
2002,9,1,6,0,-1.08,01,0.00,06,-0.18,01,-0.85,01,30.41,01,98.10,01
2002,9,1,6,5,-0.42,01,0.00,06,-0.15,01,0.04,01,30.40,01,98.10,01
2002,9,1,6,10,1.35,01,1.61,06,-0.11,01,1.61,08,30.40,01,98.10,01
2002,9,1,6,15,4.81,01,5.17,06,-0.09,01,5.17,01,30.40,01,98.00,01
2002,9,1,6,20,9.53,01,9.80,06,-0.01,01,9.80,01,30.40,01,97.90,01
2002,9,1,6,25,17.33,01,17.51,06,0.15,01,17.50,01,30.41,01,97.80,01
2002,9,1,6,30,24.16,01,24.28,06,0.37,01,24.25,01,30.42,01,97.70,01
2002,9,1,6,35,31.95,01,31.87,06,0.89,01,31.78,01,30.42,01,97.40,01
2002,9,1,6,40,40.13,01,39.87,06,1.00,01,39.75,01,30.46,01,97.20,01
2002,9,1,6,45,49.41,01,49.04,06,2.21,01,48.73,01,30.49,01,97.00,01
2002,9,1,6,50,59.22,01,58.86,06,3.77,01,58.25,01,30.54,01,96.90,01
2002,9,1,6,55,68.47,01,68.09,06,4.79,01,67.22,01,30.60,01,96.80,01
2002,9,1,7,0,84.17,03,85.67,06,18.78,03,81.90,03,30.63,01,96.80,01
2002,9,1,7,5,92.76,03,95.01,06,21.84,03,90.20,03,30.68,01,96.80,01
2002,9,1,7,10,112.91,03,116.65,06,33.99,03,108.50,03,30.72,01,96.90,01
2002,9,1,7,15,124.53,10,131.28,06,47.38,11,119.00,11,30.79,01,96.90,01
2002,9,1,7,20,129.89,03,135.75,06,37.49,03,125.30,03,30.86,01,96.60,01
2002,9,1,7,25,114.72,03,116.79,06,15.41,03,112.20,03,30.84,01,96.50,01
2002,9,1,7,30,120.95,03,123.98,06,18.21,03,118.20,03,30.84,01,96.30,01
2002,9,1,7,35,174.44,14,192.63,06,75.60,15,167.20,15,30.89,01,96.10,01
2002,9,1,7,40,197.45,14,221.12,06,93.50,15,187.90,15,31.00,01,95.60,01
2002,9,1,7,45,198.80,10,214.15,06,66.16,11,189.40,11,31.10,01,95.20,01
2002,9,1,7,50,227.54,18,252.37,06,95.90,19,214.70,19,31.17,01,94.70,01
2002,9,1,7,55,280.81,26,320.72,06,153.20,27,257.70,27,31.29,01,94.20,01
2002,9,1,8,0,279.86,26,322.95,06,143.70,27,261.20,27,31.38,01,93.60,01
2002,9,1,8,5,285.85,22,324.26,06,121.60,23,269.80,23,31.51,01,92.90,01
2002,9,1,8,10,332.16,38,394.34,06,173.30,39,313.60,39,31.53,01,92.10,01
2002,9,1,8,15,350.60,46,428.20,06,202.20,47,330.40,47,31.77,01,91.40,01
2002,9,1,8,20,367.62,42,448.72,06,207.30,43,344.80,43,31.97,01,90.70,01
2002,9,1,8,25,390.82,54,490.97,06,242.10,55,365.40,55,32.11,01,90.10,01
2002,9,1,8,30,399.46,58,501.55,06,241.20,59,372.30,59,32.26,01,89.10,01
2002,9,1,8,35,409.34,54,512.35,06,241.60,55,378.80,55,32.19,01,89.30,01
2002,9,1,8,40,403.90,50,505.64,06,229.40,51,375.00,51,32.18,01,89.10,01
2002,9,1,8,45,403.34,46,493.58,06,213.80,47,368.30,47,32.33,01,88.30,01
2002,9,1,8,50,465.43,58,585.38,06,277.30,59,418.40,59,32.45,01,87.70,01
2002,9,1,8,55,476.50,58,598.33,06,278.80,59,426.00,59,32.57,01,86.40,01
2002,9,1,9,0,499.91,54,626.74,06,295.90,55,439.20,55,32.84,01,85.20,01
2002,9,1,9,5,515.51,58,648.53,06,307.80,59,448.70,59,32.88,01,84.60,01
2002,9,1,9,10,536.30,54,669.07,06,327.50,55,451.50,55,33.31,01,82.40,01
2002,9,1,9,15,546.80,54,681.26,06,327.70,55,458.70,55,33.39,01,81.40,01
2002,9,1,9,20,566.44,58,703.16,06,336.40,59,469.80,59,33.40,01,81.10,01
2002,9,1,9,25,585.91,54,719.63,06,348.80,55,472.70,55,33.63,01,80.00,01
2002,9,1,9,30,600.74,50,730.50,06,356.30,51,473.30,51,33.80,01,79.10,01
2002,9,1,9,35,619.15,46,738.54,06,365.80,47,469.50,47,33.85,01,79.30,01
2002,9,1,9,40,636.37,42,743.16,06,373.90,43,463.20,43,33.91,01,78.70,01
2002,9,1,9,45,656.35,38,755.60,06,384.80,39,462.50,39,33.90,01,78.70,01
2002,9,1,9,50,670.42,30,759.07,06,389.20,31,457.70,31,34.03,01,78.60,01
2002,9,1,9,55,683.94,26,761.07,06,394.70,27,450.60,27,34.10,01,78.90,01
2002,9,1,10,0,702.98,22,772.66,06,407.20,23,447.50,23,33.97,01,78.70,01
2002,9,1,10,5,716.99,18,777.20,06,408.60,19,446.20,19,34.34,01,78.20,01
2002,9,1,10,10,733.91,18,786.34,06,412.20,19,447.80,19,34.64,01,76.90,01
2002,9,1,10,15,742.89,10,777.37,06,414.20,11,432.70,11,34.54,01,77.40,01
2002,9,1,10,20,762.63,03,773.90,06,430.80,03,410.90,03,34.74,01,76.60,01
2002,9,1,10,25,774.46,03,779.35,06,436.20,03,407.40,03,34.90,01,75.80,01
2002,9,1,10,30,786.59,03,776.86,06,435.00,03,401.70,03,35.22,01,74.60,01
2002,9,1,10,35,787.01,03,766.20,06,425.00,03,395.70,03,35.41,01,74.00,01
2002,9,1,10,40,787.46,11,754.06,06,419.50,10,384.60,10,35.46,01,73.10,01
2002,9,1,10,45,808.26,15,767.60,06,431.60,14,383.80,14,35.65,01,72.40,01
2002,9,1,10,50,826.10,19,771.27,06,441.90,18,374.70,18,35.75,01,72.10,01
2002,9,1,10,55,833.27,19,771.38,06,439.90,18,373.20,18,35.75,01,71.70,01
2002,9,1,11,0,824.06,23,759.04,06,422.50,22,373.50,22,36.09,01,70.90,01
2002,9,1,11,5,837.01,23,764.12,06,428.10,22,370.50,22,35.99,01,71.20,01
2002,9,1,11,10,878.38,27,795.50,06,460.70,26,368.90,26,36.01,01,71.10,01
2002,9,1,11,15,897.56,31,801.50,06,472.60,30,361.00,30,36.42,01,68.89,01
2002,9,1,11,20,893.18,31,788.31,06,457.80,30,359.00,30,36.37,01,68.40,01
2002,9,1,11,25,891.77,35,778.90,06,449.50,34,355.00,34,36.33,01,67.53,01
2002,9,1,11,30,905.08,31,791.54,06,463.60,30,352.10,30,36.71,01,65.51,01
2002,9,1,11,35,906.63,35,791.63,06,465.00,34,348.80,34,36.92,01,64.63,01
2002,9,1,11,40,919.97,39,794.22,06,468.90,38,345.80,38,37.40,01,62.02,01
2002,9,1,11,45,929.40,39,792.03,06,470.20,38,340.70,38,37.37,01,61.11,01
2002,9,1,11,50,932.01,43,790.94,06,469.40,42,338.90,42,37.17,01,62.69,01
2002,9,1,11,55,933.67,43,793.18,06,473.00,42,336.40,42,37.33,01,62.64,01
2002,9,1,12,0,931.45,43,789.33,06,470.60,42,333.80,42,37.69,01,60.10,01
2002,9,1,12,5,935.15,43,786.36,06,465.10,42,335.30,42,37.89,01,58.53,01
2002,9,1,12,10,940.85,43,785.66,06,463.10,42,335.90,42,37.98,01,56.66,01
2002,9,1,12,15,939.75,47,783.93,06,462.40,46,334.40,46,37.99,01,56.92,01
2002,9,1,12,20,937.75,43,784.93,06,463.80,42,333.80,42,38.19,01,57.33,01
2002,9,1,12,25,935.79,47,780.59,06,459.40,46,333.70,46,38.25,01,57.63,01
2002,9,1,12,30,937.76,51,775.51,06,456.20,50,331.90,50,38.07,01,57.47,01
2002,9,1,12,35,936.88,51,769.83,06,453.40,50,329.30,50,38.39,01,56.45,01
2002,9,1,12,40,937.03,51,768.61,06,455.60,50,326.50,50,38.47,01,55.76,01
2002,9,1,12,45,937.23,51,771.13,06,462.80,50,322.80,50,38.81,01,53.71,01
2002,9,1,12,50,935.52,51,765.28,06,462.00,50,318.70,50,38.87,01,53.17,01
2002,9,1,12,55,935.81,55,756.43,06,458.60,54,314.30,54,38.57,01,54.43,01
2002,9,1,13,0,933.19,55,749.86,06,456.30,54,311.30,54,38.87,01,53.78,01
2002,9,1,13,5,937.46,55,752.68,06,463.90,54,308.40,54,38.92,01,55.08,01
2002,9,1,13,10,924.13,55,742.87,06,456.10,54,307.80,54,38.56,01,60.50,01
2002,9,1,13,15,919.63,55,735.76,06,451.40,54,307.10,54,38.45,01,61.24,01
2002,9,1,13,20,920.05,55,727.92,06,450.10,54,302.60,54,37.96,01,62.62,01
2002,9,1,13,25,914.60,59,721.21,06,446.80,58,301.30,58,37.73,01,64.51,01
2002,9,1,13,30,909.17,59,719.23,06,448.50,58,300.20,58,37.36,01,66.05,01
2002,9,1,13,35,903.74,55,716.15,06,450.00,54,298.40,54,37.29,01,66.07,01
2002,9,1,13,40,897.41,59,706.63,06,446.90,58,294.60,58,37.21,01,65.51,01
2002,9,1,13,45,888.30,59,693.84,06,438.10,58,292.90,58,37.03,01,64.74,01
2002,9,1,13,50,884.11,59,687.10,06,440.20,58,287.40,58,37.17,01,61.97,01
2002,9,1,13,55,876.98,63,682.72,06,443.60,62,283.30,62,36.99,01,62.26,01
2002,9,1,14,0,871.81,63,677.91,06,444.10,62,281.60,62,37.28,01,60.93,01
2002,9,1,14,5,861.71,67,664.09,06,435.40,66,279.20,66,37.19,01,61.07,01
2002,9,1,14,10,850.61,67,650.78,06,427.20,66,276.90,66,37.17,01,59.26,01
2002,9,1,14,15,837.52,63,642.46,06,423.40,62,275.80,62,37.33,01,56.75,01
2002,9,1,14,20,822.44,63,634.34,06,421.80,62,273.10,62,37.55,01,54.89,01
2002,9,1,14,25,817.46,67,628.79,06,422.10,66,271.50,66,37.30,01,57.89,01
2002,9,1,14,30,804.69,63,614.61,06,413.70,62,268.70,62,37.34,01,56.78,01
2002,9,1,14,35,794.87,63,603.71,06,409.50,62,265.70,62,37.63,01,55.89,01
2002,9,1,14,40,784.03,67,595.74,06,408.10,66,263.40,66,37.68,01,55.46,01
2002,9,1,14,45,767.19,67,587.10,06,403.90,66,262.80,66,37.97,01,53.76,01
2002,9,1,14,50,753.30,63,574.63,06,397.20,62,260.40,62,37.67,01,55.21,01
2002,9,1,14,55,737.38,63,559.20,06,385.00,62,259.30,62,37.37,01,55.97,01
2002,9,1,15,0,725.42,63,547.83,06,382.70,62,254.50,62,37.54,01,55.80,01
2002,9,1,15,5,708.48,63,537.43,06,379.40,62,251.50,62,37.43,01,56.78,01
2002,9,1,15,10,692.41,63,527.47,06,375.80,62,249.20,62,37.36,01,54.67,01
2002,9,1,15,15,677.10,67,515.44,06,367.60,66,248.20,66,37.49,01,57.75,01
2002,9,1,15,20,663.65,67,501.77,06,359.90,66,245.10,66,37.31,01,56.69,01
2002,9,1,15,25,646.49,67,488.28,06,353.30,66,241.30,66,37.36,01,57.29,01
2002,9,1,15,30,632.02,63,479.19,06,353.60,62,237.10,62,37.35,01,56.98,01
2002,9,1,15,35,613.80,63,467.55,06,346.70,62,235.30,62,37.15,01,58.78,01
2002,9,1,15,40,594.38,63,452.76,06,334.20,62,233.90,62,36.88,01,61.26,01
2002,9,1,15,45,574.89,59,436.98,06,323.00,58,230.40,58,36.87,01,62.62,01
2002,9,1,15,50,556.30,63,424.03,06,314.80,62,227.60,62,36.79,01,63.00,01
2002,9,1,15,55,539.29,59,414.22,06,310.50,58,225.40,58,36.77,01,63.38,01
2002,9,1,16,0,521.27,55,401.68,06,303.70,54,221.90,54,36.47,01,64.57,01
2002,9,1,16,5,501.49,55,386.07,06,293.20,54,217.30,54,36.31,01,65.91,01
2002,9,1,16,10,480.99,55,371.44,06,280.40,54,214.70,54,36.61,01,64.50,01
2002,9,1,16,15,461.77,55,357.42,06,276.00,54,207.80,54,36.31,01,64.40,01
2002,9,1,16,20,444.60,55,346.71,06,274.30,54,202.70,54,36.41,01,60.97,01
2002,9,1,16,25,426.62,55,334.28,06,270.40,54,197.00,54,36.97,01,48.27,01
2002,9,1,16,30,406.33,51,318.67,06,257.20,50,192.60,50,37.45,01,43.12,01
2002,9,1,16,35,385.55,51,302.25,06,244.60,50,186.70,50,37.54,01,42.30,01
2002,9,1,16,40,363.85,51,286.84,06,234.00,50,180.50,50,37.63,01,39.76,01
2002,9,1,16,45,345.51,47,273.47,06,227.50,46,174.20,46,37.78,01,39.86,01
2002,9,1,16,50,328.73,47,259.85,06,220.20,46,167.80,46,37.48,01,40.43,01
2002,9,1,16,55,309.97,43,245.45,06,209.10,42,161.90,42,37.53,01,41.18,01
2002,9,1,17,0,288.42,43,229.07,06,196.30,42,154.30,42,37.40,01,42.40,01
2002,9,1,17,5,264.41,39,212.19,06,181.70,38,146.40,38,37.20,01,44.69,01
2002,9,1,17,10,239.53,39,195.40,06,163.20,38,139.40,38,36.87,01,45.96,01
2002,9,1,17,15,221.20,31,182.04,06,147.00,30,134.40,30,36.60,01,47.12,01
2002,9,1,17,20,208.57,31,171.23,06,142.10,30,127.90,30,36.44,01,50.34,01
2002,9,1,17,25,190.77,31,157.17,06,131.90,30,119.50,30,36.18,01,51.31,01
2002,9,1,17,30,172.50,31,144.23,06,120.70,30,112.10,30,36.03,01,52.72,01
2002,9,1,17,35,156.34,23,132.33,06,110.00,22,105.20,22,36.00,01,53.32,01
2002,9,1,17,40,139.74,23,119.36,06,96.70,22,97.40,22,35.78,01,56.07,01
2002,9,1,17,45,123.27,19,106.36,06,82.70,18,89.20,18,35.51,01,58.46,01
2002,9,1,17,50,107.27,15,94.09,06,68.63,14,81.20,14,35.20,01,60.59,01
2002,9,1,17,55,92.32,15,82.23,06,56.11,14,72.80,14,35.04,01,62.60,01
2002,9,1,18,0,78.43,01,70.80,06,43.72,01,64.32,01,34.86,01,61.26,01
2002,9,1,18,5,64.68,01,59.41,06,30.60,01,55.48,01,34.74,01,64.29,01
2002,9,1,18,10,52.75,01,49.23,06,20.09,01,47.04,01,34.50,01,66.29,01
2002,9,1,18,15,41.55,01,39.35,06,10.87,01,38.38,01,34.25,01,66.94,01
2002,9,1,18,20,31.71,01,30.35,06,4.67,01,30.02,01,34.09,01,66.84,01
2002,9,1,18,25,22.57,01,21.99,06,0.74,01,21.95,01,33.98,01,68.53,01
2002,9,1,18,30,13.57,01,13.43,06,-1.16,01,13.47,01,33.80,01,69.78,01
2002,9,1,18,35,7.45,01,7.36,06,-1.31,01,7.38,01,33.66,01,71.00,01
2002,9,1,18,40,3.08,01,0.00,06,-1.33,01,3.41,01,33.48,01,73.40,01
2002,9,1,18,45,0.79,01,0.00,06,-1.32,01,1.06,01,33.28,01,74.80,01
2002,9,1,18,50,-0.75,01,0.00,06,-1.31,01,-0.30,01,33.13,01,76.00,01
2002,9,1,18,55,-1.68,01,0.00,06,-0.99,01,-1.26,01,32.99,01,76.40,01
2002,9,1,19,0,-1.82,01,0.00,06,-0.79,01,-1.36,01,32.96,01,78.30,01
2002,9,1,19,5,-1.89,01,0.00,06,-0.80,01,-1.36,01,32.78,01,79.70,01
2002,9,1,19,10,-1.95,01,0.00,06,-0.58,01,-1.50,01,32.74,01,80.70,01
2002,9,1,19,15,-1.91,01,0.00,06,-0.55,01,-1.37,01,32.61,01,81.90,01
2002,9,1,19,20,-1.78,01,0.00,06,-0.41,01,-1.32,01,32.50,01,81.60,01
2002,9,1,19,25,-1.92,01,0.00,06,-0.36,01,-1.43,01,32.47,01,82.00,01
2002,9,1,19,30,-1.84,01,0.00,06,-0.40,01,-1.42,01,32.39,01,82.70,01
2002,9,1,19,35,-1.85,01,0.00,06,-0.27,01,-1.40,01,32.33,01,83.50,01
2002,9,1,19,40,-1.76,01,0.00,06,0.01,01,-1.32,01,32.34,01,84.00,01
2002,9,1,19,45,-1.84,01,0.00,06,0.13,01,-1.36,01,32.27,01,83.90,01
2002,9,1,19,50,-1.87,01,0.00,06,-0.02,01,-1.46,01,32.24,01,84.60,01
2002,9,1,19,55,-1.99,01,0.00,06,0.04,01,-1.54,01,32.20,01,85.20,01
2002,9,1,20,0,-2.01,01,0.00,06,-0.06,01,-1.63,01,32.09,01,85.30,01
2002,9,1,20,5,-2.14,01,0.00,06,0.04,01,-1.67,01,32.06,01,85.50,01
2002,9,1,20,10,-2.26,01,0.00,06,-0.01,01,-1.70,01,31.99,01,85.90,01
2002,9,1,20,15,-2.13,01,0.00,06,0.04,01,-1.68,01,31.92,01,86.30,01
2002,9,1,20,20,-2.08,01,0.00,06,0.15,01,-1.67,01,31.87,01,86.30,01
2002,9,1,20,25,-2.10,01,0.00,06,0.21,01,-1.67,01,31.81,01,86.60,01
2002,9,1,20,30,-2.27,01,0.00,06,0.24,01,-1.68,01,31.77,01,87.00,01
2002,9,1,20,35,-2.54,01,0.00,06,0.29,01,-1.70,01,31.79,01,87.50,01
2002,9,1,20,40,-2.85,01,0.00,06,0.21,01,-1.97,01,31.75,01,88.10,01
2002,9,1,20,45,-2.87,01,0.00,06,0.04,01,-2.14,01,31.68,01,88.70,01
2002,9,1,20,50,-2.97,01,0.00,06,0.01,01,-2.46,01,31.65,01,89.40,01
2002,9,1,20,55,-2.95,01,0.00,06,-0.02,01,-2.44,01,31.58,01,90.20,01
2002,9,1,21,0,-2.67,01,0.00,06,0.07,01,-1.78,01,31.45,01,91.00,01
2002,9,1,21,5,-2.32,01,0.00,06,0.45,01,-1.68,01,31.40,01,91.40,01
2002,9,1,21,10,-2.08,01,0.00,06,0.44,01,-1.60,01,31.34,01,91.60,01
2002,9,1,21,15,-2.17,01,0.00,06,0.65,01,-1.66,01,31.30,01,91.70,01
2002,9,1,21,20,-2.15,01,0.00,06,0.75,01,-1.68,01,31.31,01,91.50,01
2002,9,1,21,25,-2.16,01,0.00,06,0.80,01,-1.65,01,31.30,01,91.40,01
2002,9,1,21,30,-2.13,01,0.00,06,0.84,01,-1.64,01,31.31,01,91.40,01
2002,9,1,21,35,-2.29,01,0.00,06,0.79,01,-1.68,01,31.29,01,91.30,01
2002,9,1,21,40,-2.20,01,0.00,06,0.88,01,-1.67,01,31.28,01,91.00,01
2002,9,1,21,45,-2.22,01,0.00,06,0.90,01,-1.67,01,31.30,01,90.80,01
2002,9,1,21,50,-2.22,01,0.00,06,0.89,01,-1.66,01,31.32,01,90.60,01
2002,9,1,21,55,-2.43,01,0.00,06,0.89,01,-1.69,01,31.32,01,90.40,01
2002,9,1,22,0,-2.43,01,0.00,06,0.89,01,-1.71,01,31.33,01,90.40,01
2002,9,1,22,5,-2.31,01,0.00,06,0.89,01,-1.68,01,31.36,01,90.00,01
2002,9,1,22,10,-2.46,01,0.00,06,0.89,01,-1.69,01,31.37,01,89.80,01
2002,9,1,22,15,-2.43,01,0.00,06,0.91,01,-1.72,01,31.36,01,89.40,01
2002,9,1,22,20,-2.26,01,0.00,06,0.88,01,-1.71,01,31.39,01,89.00,01
2002,9,1,22,25,-2.12,01,0.00,06,0.91,01,-1.67,01,31.46,01,88.50,01
2002,9,1,22,30,-2.19,01,0.00,06,0.89,01,-1.70,01,31.50,01,88.50,01
2002,9,1,22,35,-2.64,01,0.00,06,0.71,01,-1.96,01,31.48,01,89.20,01
2002,9,1,22,40,-2.70,01,0.00,06,0.61,01,-2.04,01,31.40,01,89.70,01
2002,9,1,22,45,-2.36,01,0.00,06,0.68,01,-1.76,01,31.37,01,89.90,01
2002,9,1,22,50,-2.29,01,0.00,06,0.71,01,-1.74,01,31.36,01,90.10,01
2002,9,1,22,55,-2.37,01,0.00,06,0.60,01,-1.81,01,31.32,01,90.10,01
2002,9,1,23,0,-2.39,01,0.00,06,0.64,01,-1.90,01,31.28,01,89.80,01
2002,9,1,23,5,-2.58,01,0.00,06,0.56,01,-2.16,01,31.27,01,89.40,01
2002,9,1,23,10,-2.50,01,0.00,06,0.78,01,-2.07,01,31.25,01,88.50,01
2002,9,1,23,15,-2.67,01,0.00,06,0.72,01,-2.15,01,31.29,01,87.90,01
2002,9,1,23,20,-2.95,01,0.00,06,0.49,01,-2.58,01,31.27,01,87.60,01
2002,9,1,23,25,-3.32,01,0.00,06,0.33,01,-2.93,01,31.21,01,87.70,01
2002,9,1,23,30,-3.32,01,0.00,06,0.20,01,-2.94,01,31.13,01,87.70,01
2002,9,1,23,35,-3.37,01,0.00,06,0.10,01,-2.94,01,31.06,01,87.90,01
2002,9,1,23,40,-3.25,01,0.00,06,0.40,01,-2.84,01,31.03,01,88.10,01
2002,9,1,23,45,-3.15,01,0.00,06,0.75,01,-2.62,01,31.01,01,88.10,01
2002,9,1,23,50,-3.01,01,0.00,06,0.80,01,-2.42,01,30.97,01,88.10,01
2002,9,1,23,55,-3.17,01,0.00,06,0.69,01,-2.51,01,30.89,01,88.30,01
2002,9,2,0,0,-3.58,01,0.00,06,0.54,01,-2.91,01,30.82,01,88.50,01
2002,9,2,0,5,-3.39,01,0.00,06,0.72,01,-2.67,01,30.79,01,88.70,01
2002,9,2,0,10,-2.80,01,0.00,06,0.88,01,-1.98,01,30.81,01,88.70,01
2002,9,2,0,15,-3.00,01,0.00,06,0.75,01,-2.22,01,30.74,01,88.70,01
2002,9,2,0,20,-3.35,01,0.00,06,0.66,01,-2.57,01,30.64,01,89.10,01
2002,9,2,0,25,-2.94,01,0.00,06,0.80,01,-2.12,01,30.65,01,89.30,01
2002,9,2,0,30,-2.55,01,0.00,06,0.93,01,-1.69,01,30.65,01,89.10,01
2002,9,2,0,35,-2.25,01,0.00,06,0.89,01,-1.64,01,30.61,01,89.10,01
2002,9,2,0,40,-2.17,01,0.00,06,0.86,01,-1.56,01,30.56,01,89.20,01
2002,9,2,0,45,-2.14,01,0.00,06,0.87,01,-1.51,01,30.57,01,89.30,01
2002,9,2,0,50,-2.26,01,0.00,06,0.78,01,-1.62,01,30.56,01,89.40,01
2002,9,2,0,55,-2.36,01,0.00,06,0.84,01,-1.68,01,30.56,01,89.40,01
2002,9,2,1,0,-2.58,01,0.00,06,0.73,01,-1.69,01,30.51,01,89.50,01
2002,9,2,1,5,-2.85,01,0.00,06,0.69,01,-1.79,01,30.47,01,89.60,01
2002,9,2,1,10,-2.74,01,0.00,06,0.78,01,-1.79,01,30.50,01,89.80,01
2002,9,2,1,15,-2.74,01,0.00,06,0.70,01,-1.81,01,30.52,01,89.80,01
2002,9,2,1,20,-3.19,01,0.00,06,0.49,01,-2.32,01,30.43,01,90.20,01
2002,9,2,1,25,-3.07,01,0.00,06,0.52,01,-2.16,01,30.35,01,90.50,01
2002,9,2,1,30,-2.67,01,0.00,06,0.47,01,-1.75,01,30.29,01,90.80,01
2002,9,2,1,35,-2.24,01,0.00,06,0.50,01,-1.63,01,30.26,01,90.90,01
2002,9,2,1,40,-2.16,01,0.00,06,0.51,01,-1.48,01,30.23,01,91.00,01
2002,9,2,1,45,-2.19,01,0.00,06,0.48,01,-1.44,01,30.21,01,91.10,01
2002,9,2,1,50,-2.18,01,0.00,06,0.51,01,-1.63,01,30.19,01,91.10,01
2002,9,2,1,55,-2.25,01,0.00,06,0.55,01,-1.68,01,30.20,01,91.40,01
2002,9,2,2,0,-2.71,01,0.00,06,0.47,01,-1.72,01,30.15,01,91.70,01
2002,9,2,2,5,-3.19,01,0.00,06,0.27,01,-2.35,01,30.08,01,92.00,01
2002,9,2,2,10,-3.70,01,0.00,06,0.14,01,-2.93,01,30.04,01,92.20,01
2002,9,2,2,15,-3.70,01,0.00,06,0.29,01,-2.98,01,30.00,01,92.40,01
2002,9,2,2,20,-3.20,01,0.00,06,0.43,01,-2.63,01,29.94,01,92.80,01
2002,9,2,2,25,-2.56,01,0.00,06,0.55,01,-1.79,01,29.91,01,93.10,01
2002,9,2,2,30,-2.35,01,0.00,06,0.57,01,-1.72,01,29.81,01,93.30,01
2002,9,2,2,35,-2.23,01,0.00,06,0.61,01,-1.72,01,29.80,01,93.60,01
2002,9,2,2,40,-2.01,01,0.00,06,0.89,01,-1.64,01,29.86,01,93.80,01
2002,9,2,2,45,-2.02,01,0.00,06,1.00,01,-1.63,01,29.90,01,93.70,01
2002,9,2,2,50,-2.16,01,0.00,06,1.02,01,-1.69,01,29.93,01,93.60,01
2002,9,2,2,55,-2.41,01,0.00,06,1.04,01,-1.95,01,29.95,01,93.30,01
2002,9,2,3,0,-2.79,01,0.00,06,0.93,01,-2.30,01,29.95,01,93.10,01
2002,9,2,3,5,-2.80,01,0.00,06,0.94,01,-2.39,01,29.98,01,93.20,01
2002,9,2,3,10,-2.80,01,0.00,06,0.90,01,-2.31,01,29.98,01,93.20,01
2002,9,2,3,15,-3.19,01,0.00,06,0.60,01,-2.77,01,29.89,01,93.20,01
2002,9,2,3,20,-3.34,01,0.00,06,0.42,01,-2.92,01,29.78,01,93.30,01
2002,9,2,3,25,-3.24,01,0.00,06,0.33,01,-2.84,01,29.69,01,93.30,01
2002,9,2,3,30,-3.59,01,0.00,06,0.07,01,-2.95,01,29.59,01,93.30,01
2002,9,2,3,35,-3.52,01,0.00,06,0.11,01,-2.94,01,29.48,01,93.20,01
2002,9,2,3,40,-3.20,01,0.00,06,0.17,01,-2.85,01,29.41,01,93.20,01
2002,9,2,3,45,-3.26,01,0.00,06,0.15,01,-2.89,01,29.31,01,93.10,01
2002,9,2,3,50,-3.30,01,0.00,06,0.07,01,-2.94,01,29.21,01,93.00,01
2002,9,2,3,55,-3.46,01,0.00,06,0.18,01,-2.94,01,29.18,01,93.00,01
2002,9,2,4,0,-3.36,01,0.00,06,0.40,01,-2.94,01,29.15,01,93.00,01
2002,9,2,4,5,-3.12,01,0.00,06,0.42,01,-2.84,01,29.12,01,92.90,01
2002,9,2,4,10,-3.15,01,0.00,06,0.43,01,-2.88,01,29.08,01,93.00,01
2002,9,2,4,15,-2.73,01,0.00,06,0.83,01,-2.36,01,29.13,01,93.20,01
2002,9,2,4,20,-2.53,01,0.00,06,0.80,01,-1.99,01,29.13,01,93.00,01
2002,9,2,4,25,-2.65,01,0.00,06,0.75,01,-2.09,01,29.08,01,93.10,01
2002,9,2,4,30,-2.60,01,0.00,06,0.64,01,-2.08,01,29.08,01,93.20,01
2002,9,2,4,35,-2.56,01,0.00,06,0.58,01,-2.09,01,29.11,01,93.40,01
2002,9,2,4,40,-2.64,01,0.00,06,0.52,01,-2.08,01,29.16,01,93.30,01
2002,9,2,4,45,-2.66,01,0.00,06,0.48,01,-2.10,01,29.14,01,93.30,01
2002,9,2,4,50,-2.93,01,0.00,06,0.30,01,-2.32,01,29.08,01,93.30,01
2002,9,2,4,55,-2.98,01,0.00,06,0.41,01,-2.43,01,29.04,01,93.60,01
2002,9,2,5,0,-2.63,01,0.00,06,0.71,01,-2.12,01,29.06,01,93.90,01
2002,9,2,5,5,-2.65,01,0.00,06,0.73,01,-2.14,01,29.05,01,93.90,01